Voltar ao catálogo

STARLINK-35869

AtivoComunicaçõesVLEO
NORAD 66353·PAYLOAD·🇺🇸 United States

Lançado Nov 6, 2025 de Vandenberg Space Force Base

Loading…

Próximas Passagens (próximas 24 horas)

TLE

AtualizadoSource: CelesTrak SupGP

Época: Sep 14, 2026, 23:12 UTC

1 66353C 25254F   26257.96715278  .00032909  00000+0  97252-3 0  2575
2 66353  53.1577  71.3906 0001189  83.8488 200.0913 15.34366899    17

Acompanhe STARLINK-35869 em tempo real com AllMySat

Download on the App Store